logo
App data

Recursion Deluxe

A crash landing on a world inhabited by bee-like lifeforms. Stranded, our hero must unravel the rules of this uncharted planet to find their way home.
Store | Hub | SteamDB | Site
Developer: 2D Heroes, Ursa Games Publisher: Publisher: 2D Heroes
Genre: Action, Casual, Indie
Languages: English
Tags: Casual (34), Indie (33), Action (23), Platformer (18), Puzzle (15), 2D (13), Pixel Graphics (10), Difficult (5)
Category: Single-player, Steam Achievements, Full controller support, Steam Trading Cards, Steam Cloud, Includes level editor
Release date: Feb 12, 2016
Price: $4.99
Score rank: 70% Userscore: 88% Old userscore: 91%
Owners: 0 .. 20,000
Followers: 595
Peak concurrent players yesterday: 1
Playtime total: 04:24 (average) 03:51 (median)

Steam Spy is still in beta, so expect major bugs.

Owners data:

Access restricted.

This feature is only available to users with special access rights. Sorry.

If you want to proceed, you need to register or log in first and then back Steam Spy on Patreon. Look for Indie or Pro pledge.

Don't forget to use the same email as on Steam Spy!

Audience in 2 weeks:

Access restricted.

This feature is only available to users with special access rights. Sorry.

If you want to proceed, you need to register or log in first and then back Steam Spy on Patreon. Look for Indie or Pro pledge.

Don't forget to use the same email as on Steam Spy!

Peak daily concurrent players:

CCU data courtesy of SteamDB. Used with permission.

Hourly concurrent players:

Daily Twitch stats:

Hourly Twitch stats:

YouTube:

The views data is based on top 50 videos uploaded last week. Actual number of views might be more than the number shown.

The displayed number of videos uploaded yesterday is limited to 50, so if there were more videos uploaded, the number will still show 50.

If the game has commonly used word as its name (like "FEAR" or "Volume") its number of Youtube views might be wrong.

Games similar to this one:

# Game Release date
Price
Score rank
(Userscore / Metascore)
Owners
Players
Playtime (Median)
1 Night Blights Apr 15, 2016 $4.99100% (100%)0 .. 20,0000%00:00 (00:00)
2 Hustle Cat Mar 16, 2016 $19.9997% (97%)0 .. 20,0000%00:00 (00:00)
3 Carrie's Order Up! Sep 12, 2016 $2.9997% (97%)0 .. 20,0002.38%01:16 (00:25)
4 Luxor Evolved Mar 1, 2012 $9.9997% (97%)50,000 .. 100,0000%00:00 (00:00)
5 A Good Snowman Is Hard To Build Feb 25, 2015 $9.9993% (95%)0 .. 20,0000%00:00 (00:00)
6 Beat Da Beat Mar 10, 2016 $1.9993% (95%)0 .. 20,0000%00:00 (00:00)
7 [the Sequence] Mar 30, 2016 $1.9990% (94%)0 .. 20,0000%00:00 (00:00)
8 Chip's Challenge 2 May 28, 2015 $4.9990% (94%)20,000 .. 50,0005.88%04:28 (01:29)
9 Swapperoo Dec 18, 2015 $4.99N/A (N/A)0 .. 20,0000%00:00 (00:00)
10 Think To Die 3 Mar 27, 2017 $4.99N/A (N/A)0 .. 20,0000%00:00 (00:00)
11 12 Labours of Hercules Mar 23, 2015 $2.9987% (93%)100,000 .. 200,0000.69%03:16 (02:10)
12 Girls Like Robots Feb 14, 2014 $6.9987% (93%)100,000 .. 200,0000%00:00 (00:00)
13 Tennis in the Face Nov 18, 2015 $4.9987% (93%)0 .. 20,0000%00:00 (00:00)
14 SquareCells Dec 7, 2015 $2.9983% (92%)20,000 .. 50,0005.88%05:40 (03:46)
15 Frog Climbers Oct 6, 2016 $6.9983% (92%)50,000 .. 100,0000%00:00 (00:00)
16 Grapple Mar 9, 2015 $7.9983% (92%)20,000 .. 50,0000%00:00 (00:00)
17 The Jackbox Party Pack Nov 26, 2014 $24.9979% (91%)200,000 .. 500,0003.33%00:28 (00:18)
18 Tribloos 2 Jan 12, 2013 $4.9979% (91%)100,000 .. 200,0000.88%04:45 (01:45)
19 Koala Kids Jun 22, 2015 $0.9979% (91%)20,000 .. 50,0000%00:00 (00:00)
20 Earthtongue Apr 27, 2015 $4.9979% (91%)0 .. 20,0000%00:00 (00:00)
21 On Rusty Trails Jun 13, 2016 $12.9976% (90%/77%)50,000 .. 100,0001.05%00:32 (00:10)
22 The Reject Demon: Toko Chapter 0 — Prelude May 9, 2015 $4.9973% (89%)0 .. 20,0000%00:00 (00:00)
23 Loot Hound Nov 17, 2015 $4.9973% (89%)0 .. 20,0000%00:00 (00:00)
24 This Starry Midnight We Make Jun 1, 2015 $9.99N/A (N/A)0 .. 20,0000%00:00 (00:00)
25 Griptape Backbone May 5, 2017 Free73% (89%)0 .. 20,0000%00:00 (00:00)
26 Clock Simulator Jul 20, 2016 $0.9973% (89%)20,000 .. 50,0006.12%01:15 (01:06)
27 Bob Was Hungry Aug 19, 2015 $9.9973% (89%)20,000 .. 50,0000%00:00 (00:00)
28 Vampires: Guide Them to Safety! Oct 22, 2014 $4.99N/A (N/A)0 .. 20,0000%00:00 (00:00)
29 In Between Aug 21, 2015 $11.9970% (88%/68%)50,000 .. 100,0000%00:00 (00:00)
30 12 Labours of Hercules IV: Mother Nature (Platinum Edition) Dec 25, 2015 $2.9970% (88%)20,000 .. 50,0000%00:00 (00:00)
31 12 Labours of Hercules V: Kids of Hellas (Platinum Edition) Jun 17, 2016 $2.9970% (88%)20,000 .. 50,0000%00:00 (00:00)
32 Without Within 2 Nov 9, 2015 $4.9970% (88%)0 .. 20,0000%00:00 (00:00)
33 Forgotten, Not Lost - A Kinetic Novel Apr 1, 2016 $1.9970% (88%)50,000 .. 100,0003.45%04:42 (03:13)
34 Thrillville: Off the Rails Oct 9, 2007 $9.9970% (88%/70%)20,000 .. 50,0000%00:00 (00:00)
35 Darkarta: A Broken Heart's Quest Collector's Edition Mar 8, 2017 $5.9970% (88%)20,000 .. 50,0000%00:00 (00:00)
36 Cursed Sight Aug 3, 2015 $5.9968% (87%)0 .. 20,0000%00:00 (00:00)
37 Sophie's Curse Mar 16, 2016 $4.9965% (86%)20,000 .. 50,0000%00:00 (00:00)
38 Oozi: Earth Adventure Dec 5, 2013 $4.9965% (86%/66%)50,000 .. 100,0000.68%00:27 (00:09)
39 Army of Pixels Oct 29, 2015 $4.99N/A (N/A)0 .. 20,0000%00:00 (00:00)
40 Anode Oct 5, 2015 $3.9965% (86%)0 .. 20,0000%00:00 (00:00)
41 Asphyxia Aug 4, 2015 $5.9965% (86%)20,000 .. 50,0000%00:00 (00:00)
42 Alpha Runner Sep 2, 2015 $0.4965% (86%)50,000 .. 100,0000%00:00 (00:00)
43 BAD END Nov 25, 2015 $1.9962% (85%)20,000 .. 50,0000%00:00 (00:00)
44 Dead Man's Draw Feb 6, 2014 $6.9962% (85%)20,000 .. 50,0000%00:00 (00:00)
45 Governor of Poker 2 - Premium Edition Oct 11, 2010 $14.9960% (84%)20,000 .. 50,0000%00:00 (00:00)
46 Magma Tsunami Jun 1, 2016 $0.9960% (84%)100,000 .. 200,0000%00:00 (00:00)
47 RePete Mar 9, 2016 $1.99N/A (N/A)0 .. 20,0000%00:00 (00:00)
48 Sentinel 4: Dark Star Aug 13, 2015 $6.99N/A (N/A)0 .. 20,0000%00:00 (00:00)
49 Gridworld Dec 24, 2015 $0.9957% (83%)0 .. 20,0000%00:00 (00:00)
50 Cyto Jul 10, 2014 $3.9957% (83%)20,000 .. 50,0000%00:00 (00:00)
51 Cute Things Dying Violently Sep 2, 2015 $2.9957% (83%)0 .. 20,0000%00:00 (00:00)
52 Steam and Metal Feb 9, 2015 $4.99N/A (N/A)0 .. 20,0000%00:00 (00:00)
53 Job the Leprechaun Jul 31, 2015 $0.4955% (82%)20,000 .. 50,0000%00:00 (00:00)
54 Air Missions: HIND Jun 14, 2017 $16.9955% (82%)0 .. 20,0000%00:00 (00:00)
55 Collisions Jul 28, 2015 $3.9953% (81%)20,000 .. 50,0000%00:00 (00:00)
56 Archimedes Oct 6, 2016 $2.9953% (81%)50,000 .. 100,0000%00:00 (00:00)
57 Star Sky - ブルームーン Oct 23, 2015 $0.9953% (81%)0 .. 20,0000%00:00 (00:00)
58 Stay Alight Mar 2, 2015 $3.9953% (81%)20,000 .. 50,0000%00:00 (00:00)
59 Space Drifters 2D Mar 28, 2016 $0.99N/A (N/A)0 .. 20,0000%00:00 (00:00)
60 Rescue Team 5 Nov 18, 2015 $3.9950% (80%)20,000 .. 50,0000%00:00 (00:00)
61 Fate Tectonics Sep 9, 2015 $9.9948% (79%)0 .. 20,0000%00:00 (00:00)
62 hackmud Sep 22, 2016 $19.9948% (79%)0 .. 20,00012.5%01:41 (00:33)
63 Terraform May 8, 2015 $2.99N/A (N/A)0 .. 20,0000%00:00 (00:00)
64 Egg Returns Home May 5, 2015 $1.9948% (79%)20,000 .. 50,0000%00:00 (00:00)
65 The Last NightMary - A Lenda do Cabeça de Cuia Nov 2, 2015 $0.5148% (79%)50,000 .. 100,0000.94%02:02 (00:40)
66 Farm for your Life Jun 5, 2013 $9.9948% (79%)50,000 .. 100,0000%00:00 (00:00)
67 GamersGoMakers Aug 8, 2014 $9.9948% (79%)0 .. 20,0000%00:00 (00:00)
68 Paranormal State: Poison Spring Nov 26, 2013 $9.9946% (78%)20,000 .. 50,0000%00:00 (00:00)
69 Particulars Nov 19, 2014 $5.9946% (78%/74%)20,000 .. 50,0000%00:00 (00:00)
70 Optika Aug 26, 2016 $4.9946% (78%)20,000 .. 50,0000%00:00 (00:00)
71 The Survey Oct 27, 2016 $4.9946% (78%)0 .. 20,00010%01:08 (00:45)
72 SinaRun Oct 26, 2015 $2.9944% (77%)0 .. 20,0000%00:00 (00:00)
73 Neon Prism Nov 18, 2016 $4.9944% (77%)50,000 .. 100,0000%00:00 (00:00)
74 The Deletion Jul 30, 2015 $1.9943% (76%)20,000 .. 50,0000%00:00 (00:00)
75 Caravanserail Mar 10, 2016 $2.99N/A (N/A)0 .. 20,0000%00:00 (00:00)
76 Pixel Puzzles 2: Birds Feb 20, 2015 $1.4943% (76%)100,000 .. 200,0003.01%04:00 (05:41)
77 Beeftacular Aug 26, 2016 $2.9941% (75%)0 .. 20,0000%00:00 (00:00)
78 Kombine Oct 14, 2016 $0.9941% (75%)0 .. 20,0000%00:00 (00:00)
79 Western FPS Mar 13, 2017 $0.6241% (75%)100,000 .. 200,0000.3%00:22 (00:07)
80 Where are my Internets? Dec 16, 2016 $2.9941% (75%)0 .. 20,0000%00:00 (00:00)
81 Turbo Pug 3D Sep 20, 2016 $1.9939% (74%)200,000 .. 500,0000.12%01:25 (00:28)
82 GO AWAY, THERE'S KUMIS OVER THERE! Oct 28, 2016 $0.9939% (74%)50,000 .. 100,0000%00:00 (00:00)
83 Totally Unbalanced Jul 29, 2016 $2.9937% (73%)0 .. 20,0004%03:55 (01:18)
84 MOAI 2: Path to Another World Apr 11, 2015 $7.99N/A (N/A)0 .. 20,00011.11%05:33 (01:51)
85 ConflictCraft Dec 8, 2016 $2.99N/A (N/A)20,000 .. 50,0000%00:00 (00:00)
86 Pester Jan 25, 2013 $0.9935% (72%)100,000 .. 200,0000.88%04:39 (03:15)
87 Wanda - A Beautiful Apocalypse Jun 3, 2016 $9.9934% (71%)50,000 .. 100,0002.16%03:31 (02:46)
88 Laserlife Sep 22, 2015 $14.9934% (71%)0 .. 20,0000%00:00 (00:00)
89 Lift It Jan 20, 2017 $4.9932% (70%)20,000 .. 50,0000.54%07:39 (02:33)
90 Axel & Pixel Oct 6, 2010 $4.99N/A (N/A)20,000 .. 50,0000%00:00 (00:00)
91 1931: Scheherazade at the Library of Pergamum Mar 26, 2015 $24.9929% (68%)0 .. 20,0000%00:00 (00:00)
92 Love in the Glen Jun 8, 2016 $5.99N/A (N/A)20,000 .. 50,0003.51%03:41 (02:27)
93 Sinister City Oct 18, 2014 $0.9929% (68%)100,000 .. 200,0000%00:00 (00:00)
94 Zipple World Jan 19, 2016 $4.99N/A (N/A)0 .. 20,0002.94%00:01 (00:00)
95 Racecraft Mar 4, 2016 $19.9928% (67%)20,000 .. 50,0000%00:00 (00:00)
96 Marble Duel Nov 12, 2015 $4.9928% (67%)100,000 .. 200,0001.87%02:49 (01:51)
97 Fergus The Fly Feb 1, 2017 $0.9928% (67%)200,000 .. 500,0000.11%04:32 (01:30)
98 Mind Games Mar 4, 2016 $2.9928% (67%)0 .. 20,0000%00:00 (00:00)
99 One Last Chance Apr 7, 2016 $3.9928% (67%)20,000 .. 50,0001.33%04:11 (01:23)
100 Broken Dreams Feb 19, 2016 $1.9926% (66%)200,000 .. 500,0000.18%01:03 (00:41)
101 Herding Dog Jan 15, 2016 $2.99N/A (N/A)0 .. 20,0000%00:00 (00:00)
102 Alter World May 29, 2015 $1.9925% (65%)100,000 .. 200,0000.32%05:15 (01:45)
103 Winexy Jan 13, 2017 $0.9924% (64%)20,000 .. 50,0001.18%02:30 (00:50)
104 XCavalypse Jun 6, 2016 $5.99N/A (N/A)0 .. 20,0000%00:00 (00:00)
105 FBI MANIA Jan 31, 2017 $0.99N/A (N/A)50,000 .. 100,0000%00:00 (00:00)
106 Highborn Feb 19, 2013 $1.99N/A (N/A)0 .. 20,0000%00:00 (00:00)
107 Won't You Be My Laser? Sep 2, 2016 $0.99N/A (N/A)0 .. 20,0000%00:00 (00:00)
108 Bloop Reloaded Feb 6, 2015 $9.9920% (61%)100,000 .. 200,0000.83%15:12 (14:44)
109 Power of Love Jul 21, 2015 $4.9920% (61%)20,000 .. 50,0001.42%03:37 (01:30)
110 Goodnight Butcher Dec 18, 2015 $1.99N/A (N/A)20,000 .. 50,0000%00:00 (00:00)
111 Football Blitz Jan 4, 2017 $3.99N/A (N/A)20,000 .. 50,0000%00:00 (00:00)
112 Star Chronicles: Delta Quadrant Jul 7, 2015 $0.9917% (58%)200,000 .. 500,0000.39%00:42 (00:42)
113 Dance Magic Feb 15, 2016 $9.99N/A (N/A)0 .. 20,0000%00:00 (00:00)
114 Bunny & Piggy Nov 30, 2016 $0.4916% (57%)50,000 .. 100,0001.34%04:26 (01:31)
115 Way of Gold and Steel Aug 17, 2015 $8.9915% (56%)0 .. 20,0000%00:00 (00:00)
116 King's Guard TD Jun 8, 2016 $0.9914% (54%)100,000 .. 200,0000.37%00:01 (00:00)
117 Wildlife Park 2 - Dino World Mar 30, 2012 $3.99N/A (N/A)20,000 .. 50,0000%00:00 (00:00)
118 Backgammon Blitz Nov 12, 2015 $3.9914% (54%)0 .. 20,0000%00:00 (00:00)
119 Sky to Fly: Soulless Leviathan Jul 22, 2016 $3.9913% (53%)0 .. 20,0000%00:00 (00:00)
120 Drizzlepath Mar 12, 2015 $1.4913% (53%)0 .. 20,0000%00:00 (00:00)
121 Reptilian Rebellion Aug 7, 2016 $0.9913% (53%)20,000 .. 50,0000%00:00 (00:00)
122 Color Syndrome Aug 1, 2016 $0.9913% (52%)20,000 .. 50,0000.49%00:14 (00:04)
123 Quantum Rush Champions Dec 4, 2014 $2.9911% (50%)20,000 .. 50,0000%00:00 (00:00)
124 Rage Runner May 16, 2014 $4.99N/A (N/A)20,000 .. 50,0000%00:00 (00:00)
125 Astro Emporia Feb 2, 2015 $0.9911% (50%)0 .. 20,0001.23%08:30 (02:50)
126 Autumn May 14, 2016 $2.99N/A (N/A)50,000 .. 100,0000%00:00 (00:00)
127 Melting Hearts: Our Love Will Grow 2 Apr 29, 2016 $4.999% (46%)0 .. 20,0000%00:00 (00:00)
128 Ninja Stealth 2 Jan 30, 2017 $1.998% (45%)20,000 .. 50,0001.59%00:04 (00:01)
129 iREC Jan 16, 2017 Free7% (41%)50,000 .. 100,0001.02%00:04 (00:01)
130 Burst Mar 14, 2016 $0.49N/A (N/A)20,000 .. 50,0000%00:00 (00:00)
131 Streets of Chaos Jan 23, 2015 $0.996% (40%)100,000 .. 200,0000.23%02:27 (00:49)
132 Space Hotel Jan 4, 2017 $1.99N/A (N/A)0 .. 20,0000%00:00 (00:00)
133 European Ship Simulator Nov 4, 2016 $4.996% (38%)20,000 .. 50,0000%00:00 (00:00)
134 Hide and Secret Treasure of the Ages Jun 17, 2016 $2.99N/A (N/A)0 .. 20,0000%00:00 (00:00)
135 Robot vs Birds Zombies Jun 1, 2013 $0.994% (31%)0 .. 20,0000%00:00 (00:00)
136 Labyrinth Simulator Sep 21, 2015 $4.994% (31%)0 .. 20,0000%00:00 (00:00)
137 Industry Transporters Aug 31, 2015 $9.99N/A (N/A)0 .. 20,0000%00:00 (00:00)
138 Hyposphere May 5, 2016 $2.993% (28%)100,000 .. 200,0000.24%00:04 (00:01)
139 Cyber Team Manager Jan 18, 2016 $4.992% (20%)0 .. 20,0000%00:00 (00:00)
140 One way to exit Mar 12, 2016 $1.99N/A (N/A)200,000 .. 500,0000%00:00 (00:00)

Owners of this game also own:

Access restricted.

This feature is only available to users with special access rights. Sorry.

If you want to proceed, you need to register or log in first and then back Steam Spy on Patreon. Look for Indie or Pro pledge.

Don't forget to use the same email as on Steam Spy!

Playtime distribution:

Access restricted.

This feature is only available to users with special access rights. Sorry.

If you want to proceed, you need to register or log in first and then back Steam Spy on Patreon. Look for Indie or Pro pledge.

Don't forget to use the same email as on Steam Spy!

Playtime (2 weeks):

Access restricted.

This feature is only available to users with special access rights. Sorry.

If you want to proceed, you need to register or log in first and then back Steam Spy on Patreon. Look for Indie or Pro pledge.

Don't forget to use the same email as on Steam Spy!

User reviews:

Login required.

Please register or log in to see this information.